SQ2CET-13 Weather Reports


time (UTC)temp
C
wind
direction
speed
KPH
gust
KPH
rain 1hr
cm
rain 24hr
cm
rain mn
cm
humidity
%
barometer
mb
20260504045107 16 252 3.2 12.9 0.00 0.00 0.00 58 1010.2
20260504044027 16 227 3.2 6.4 0.00 0.00 0.00 58 1010.1
20260504043052 16 198 1.6 6.4 0.00 0.00 0.00 58 1010.2
20260504042114 15 208 1.6 6.4 0.00 0.00 0.00 58 1010.4
20260504041054 15 220 3.2 6.4 0.00 0.00 0.00 58 1010.3
20260504040057 15 222 3.2 8.0 0.00 0.00 0.00 57 1010.2
20260504035018 15 214 3.2 8.0 0.00 0.00 0.00 58 1010.2
20260504034042 15 213 1.6 8.0 0.00 0.00 0.00 57 1010.1
20260504033106 15 218 1.6 8.0 0.00 0.00 0.00 59 1010.0
20260504032018 15 229 3.2 9.7 0.00 0.00 0.00 59 1010.1
20260504031042 15 217 1.6 8.0 0.00 0.00 0.00 60 1010.1
20260504030107 15 206 4.8 8.0 0.00 0.00 0.00 60 1010.0
20260504025026 15 209 3.2 8.0 0.00 0.00 0.00 60 1010.1
20260504024051 15 154 3.2 6.4 0.00 0.00 0.00 60 1010.2
20260504023115 15 202 4.8 8.0 0.00 0.00 0.00 60 1010.2
20260504022034 15 185 3.2 6.4 0.00 0.00 0.00 61 1010.2
20260504021058 15 185 3.2 4.8 0.00 0.00 0.00 60 1010.3
20260504020018 15 183 0.0 4.8 0.00 0.00 0.00 59 1010.4
20260504015042 15 222 3.2 6.4 0.00 0.00 0.00 57 1010.2
20260504014106 16 266 1.6 4.8 0.00 0.00 0.00 57 1010.2
20260504013026 16 220 4.8 8.0 0.00 0.00 0.00 56 1010.2
20260504012050 16 309 1.6 3.2 0.00 0.00 0.00 55 1010.1
20260504011134 17 212 3.2 8.0 0.00 0.00 0.00 51 1010.1
20260504010034 17 199 3.2 8.0 0.00 0.00 0.00 51 1010.2
20260504005059 17 147 1.6 4.8 0.00 0.00 0.00 51 1010.3
20260504004018 17 16 0.0 3.2 0.00 0.00 0.00 51 1010.4
20260504003042 18 213 1.6 4.8 0.00 0.00 0.00 49 1010.4
20260504002106 18 186 1.6 6.4 0.00 0.00 0.00 48 1010.5
20260504001026 18 215 1.6 8.0 0.00 0.00 0.00 48 1010.6
20260504000051 18 119 1.6 4.8 0.00 0.00 0.00 48 1010.6
20260503235115 18 70 1.6 4.8 0.00 0.00 0.00 49 1010.7
20260503234054 18 64 1.6 6.4 0.00 0.00 0.00 49 1010.8
20260503233058 18 40 3.2 6.4 0.00 0.00 0.00 51 1011.1
20260503232038 18 36 1.6 4.8 0.00 0.00 0.00 53 1011.1
20260503231042 18 216 1.6 4.8 0.00 0.00 0.00 54 1011.2
20260503230051 18 44 1.6 8.0 0.00 0.00 0.00 55 1011.3
20260503225115 18 47 4.8 8.0 0.00 0.00 0.00 55 1011.4
20260503224034 17 200 3.2 8.0 0.00 0.00 0.00 58 1011.5
20260503223057 17 194 1.6 6.4 0.00 0.00 0.00 58 1011.6
20260503222019 17 238 1.6 3.2 0.00 0.00 0.00 59 1011.6
20260503221042 17 194 0.0 3.2 0.00 0.00 0.00 61 1011.6
20260503220107 17 141 0.0 3.2 0.00 0.00 0.00 62 1011.9
20260503215026 17 0.0 1.6 0.00 0.00 0.00 62 1011.9
20260503214050 17 160 0.0 3.2 0.00 0.00 0.00 62 1012.0
20260503213114 16 357 0.0 3.2 0.00 0.00 0.00 64 1012.2
20260503212034 17 193 1.6 4.8 0.00 0.00 0.00 63 1012.3
20260503211059 16 30 1.6 4.8 0.00 0.00 0.00 66 1012.2
20260503210019 16 92 1.6 3.2 0.00 0.00 0.00 68 1012.6
20260503205044 16 69 1.6 4.8 0.00 0.00 0.00 69 1012.3
20260503204106 16 51 3.2 6.4 0.00 0.00 0.00 67 1012.4
20260503203026 16 314 3.2 9.7 0.00 0.00 0.00 63 1013.5
20260503202051 16 245 8.0 22.5 0.00 0.00 0.00 66 1013.4
20260503201115 16 0.0 0.0 0.00 0.00 0.00 65 1012.4
20260503200034 16 0.0 0.0 0.00 0.00 0.00 65 1012.4
20260503195059 15 0.0 0.0 0.00 0.00 0.00 65 1012.6
20260503194114 16 0.0 0.0 0.00 0.00 0.00 65 1012.5
20260503193034 16 0.0 1.6 0.00 0.00 0.00 61 1012.6
20260503192058 17 0.0 0.0 0.00 0.00 0.00 62 1012.6
20260503191114 16 0.0 0.0 0.00 0.00 0.00 64 1012.6
20260503190034 17 0.0 0.0 0.00 0.00 0.00 62 1012.6
20260503185059 17 0.0 0.0 0.00 0.00 0.00 62 1012.4
20260503184122 17 0.0 0.0 0.00 0.00 0.00 60 1012.3
20260503183026 18 0.0 0.0 0.00 0.00 0.00 58 1012.2
20260503182050 20 0.0 1.6 0.00 0.00 0.00 53 1012.2
20260503181114 20 0.0 0.0 0.00 0.00 0.00 47 1012.2
20260503180034 21 0.0 0.0 0.00 0.00 0.00 45 1012.1
20260503175101 21 0.0 0.0 0.00 0.00 0.00 44 1012.1
20260503174019 22 0.0 4.8 0.00 0.00 0.00 42 1012.1
20260503173042 23 294 1.6 4.8 0.00 0.00 0.00 39 1012.1
20260503172106 23 356 3.2 6.4 0.00 0.00 0.00 39 1012.0
20260503171027 22 351 3.2 8.0 0.00 0.00 0.00 41 1012.1
20260503160107 26 350 3.2 8.0 0.00 0.00 0.00 33 1012.2
20260503150109 28 352 3.2 8.0 0.00 0.00 0.00 31 1012.3
20260503140147 27 19 3.2 8.0 0.00 0.00 0.00 31 1012.5
20260503131028 27 347 3.2 17.7 0.00 0.00 0.00 31 1012.8
20260503130111 28 306 3.2 16.1 0.00 0.00 0.00 25 1012.8
20260503081054 23 233 8.0 17.7 0.00 0.00 0.00 33 1014.7
20260503080117 22 242 4.8 19.3 0.00 0.00 0.00 34 1014.9